SAA347 FAGG-FACT

Flight info

Callsign SAA347
Flight time N/A
Altitude 28000
Route APGUP DCT ETBUL UQ49 ESRUK UQ51 GETEN GETEN1C
Aircraft A346/H-SDE2E3FGHIJ3J4J5M1RWXY/LB1D1

Departure

Time N/A
Airport George Airport (FAGG)

Arrival

Time 2026-05-03 20:45
Airport Cape Town International Airport (FACT)
Time Latitude Longitude Altitude Speed Heading
2026-05-03 20:15 -33.99359 20.99471 27949 ft 390 kts 277°
2026-05-03 20:15 -33.99308 20.96241 27945 ft 390 kts 277°
2026-05-03 20:15 -33.99274 20.94092 27948 ft 390 kts 277°
2026-05-03 20:15 -33.99204 20.89746 27946 ft 389 kts 277°
2026-05-03 20:16 -33.99151 20.86550 27946 ft 389 kts 277°
2026-05-03 20:16 -33.99098 20.83379 27952 ft 389 kts 277°
2026-05-03 20:16 -33.99062 20.81254 27952 ft 389 kts 277°
2026-05-03 20:16 -33.99010 20.78019 27949 ft 389 kts 277°
2026-05-03 20:17 -33.98952 20.74766 27962 ft 388 kts 277°
2026-05-03 20:17 -33.98892 20.71493 27945 ft 388 kts 277°
2026-05-03 20:17 -33.98833 20.68255 27947 ft 388 kts 277°
2026-05-03 20:17 -33.98774 20.65013 27963 ft 388 kts 278°
2026-05-03 20:18 -33.98714 20.61764 27955 ft 388 kts 278°
2026-05-03 20:18 -33.98652 20.58518 27943 ft 388 kts 278°
2026-05-03 20:18 -33.98589 20.55280 27901 ft 388 kts 277°
2026-05-03 20:18 -33.98524 20.52013 27935 ft 389 kts 277°
2026-05-03 20:19 -33.98461 20.48772 27945 ft 391 kts 277°
2026-05-03 20:19 -33.98399 20.45504 27978 ft 389 kts 277°
2026-05-03 20:19 -33.98333 20.42241 27935 ft 389 kts 277°
2026-05-03 20:19 -33.98268 20.38988 27960 ft 389 kts 277°
2026-05-03 20:20 -33.98203 20.35732 27963 ft 389 kts 278°
2026-05-03 20:20 -33.98135 20.32472 27955 ft 388 kts 278°
2026-05-03 20:20 -33.98066 20.29210 27947 ft 389 kts 277°
2026-05-03 20:20 -33.97996 20.25950 27946 ft 388 kts 277°
2026-05-03 20:21 -33.97927 20.22713 27944 ft 388 kts 278°
2026-05-03 20:21 -33.97857 20.19489 27944 ft 388 kts 278°
2026-05-03 20:21 -33.97785 20.16247 27771 ft 388 kts 278°
2026-05-03 20:21 -33.97714 20.13015 27545 ft 386 kts 278°
2026-05-03 20:22 -33.97642 20.09811 27296 ft 382 kts 277°
2026-05-03 20:22 -33.97570 20.06631 27039 ft 379 kts 277°
2026-05-03 20:22 -33.97497 20.03439 26756 ft 378 kts 278°
2026-05-03 20:22 -33.97422 20.00273 26407 ft 379 kts 277°
2026-05-03 20:23 -33.97346 19.97091 25975 ft 380 kts 277°
2026-05-03 20:23 -33.97269 19.93904 25455 ft 380 kts 277°
2026-05-03 20:23 -33.97192 19.90733 24903 ft 380 kts 277°
2026-05-03 20:23 -33.97115 19.87551 24350 ft 380 kts 277°
2026-05-03 20:24 -33.97089 19.84368 23944 ft 378 kts 272°
2026-05-03 20:24 -33.97450 19.81264 23852 ft 370 kts 265°
2026-05-03 20:24 -33.98177 19.78328 23767 ft 364 kts 258°
2026-05-03 20:24 -33.99218 19.75566 23605 ft 359 kts 253°
2026-05-03 20:25 -34.00331 19.72929 23456 ft 348 kts 253°
2026-05-03 20:25 -34.01425 19.70373 23241 ft 340 kts 253°
2026-05-03 20:25 -34.02500 19.67867 23065 ft 331 kts 253°
2026-05-03 20:25 -34.03525 19.65492 22988 ft 317 kts 253°
2026-05-03 20:26 -34.04531 19.63147 22933 ft 303 kts 256°
2026-05-03 20:26 -34.05192 19.60808 22853 ft 290 kts 269°
2026-05-03 20:26 -34.05360 19.58439 22593 ft 287 kts 279°
2026-05-03 20:26 -34.05116 19.56014 22145 ft 287 kts 284°
2026-05-03 20:27 -34.04804 19.53670 21764 ft 286 kts 285°
2026-05-03 20:27 -34.04487 19.51306 21385 ft 285 kts 285°
2026-05-03 20:27 -34.04165 19.48928 21004 ft 284 kts 285°
2026-05-03 20:27 -34.03847 19.46620 20659 ft 283 kts 284°
2026-05-03 20:28 -34.03523 19.44270 20319 ft 285 kts 285°
2026-05-03 20:28 -34.03198 19.41874 19909 ft 283 kts 285°
2026-05-03 20:28 -34.02879 19.39563 19532 ft 281 kts 285°
2026-05-03 20:28 -34.02557 19.37242 19162 ft 279 kts 285°
2026-05-03 20:29 -34.02237 19.34941 18837 ft 276 kts 285°
2026-05-03 20:29 -34.01924 19.32686 18637 ft 268 kts 285°
2026-05-03 20:29 -34.01630 19.30530 18585 ft 253 kts 285°
2026-05-03 20:29 -34.01375 19.28479 18494 ft 243 kts 284°
2026-05-03 20:30 -34.01153 19.26456 18123 ft 244 kts 284°
2026-05-03 20:30 -34.00929 19.24430 17759 ft 243 kts 284°
2026-05-03 20:30 -34.00705 19.22400 17399 ft 244 kts 284°
2026-05-03 20:30 -34.00485 19.20376 17065 ft 242 kts 284°
2026-05-03 20:31 -34.00266 19.18369 16755 ft 240 kts 284°
2026-05-03 20:31 -34.00049 19.16378 16446 ft 239 kts 284°
2026-05-03 20:31 -33.99832 19.14401 16139 ft 237 kts 284°
2026-05-03 20:31 -33.99617 19.12435 15818 ft 236 kts 284°
2026-05-03 20:32 -33.99401 19.10473 15563 ft 238 kts 284°
2026-05-03 20:32 -33.99178 19.08462 15256 ft 245 kts 284°
2026-05-03 20:32 -33.98952 19.06421 15044 ft 242 kts 284°
2026-05-03 20:32 -33.98733 19.04417 14610 ft 241 kts 284°
2026-05-03 20:33 -33.98513 19.02407 14288 ft 241 kts 284°
2026-05-03 20:33 -33.98291 19.00391 13937 ft 244 kts 283°
2026-05-03 20:33 -33.98074 18.98369 13554 ft 240 kts 284°
2026-05-03 20:33 -33.97860 18.96392 13238 ft 234 kts 284°
2026-05-03 20:34 -33.97646 18.94475 12949 ft 230 kts 284°
2026-05-03 20:34 -33.97432 18.92573 12629 ft 228 kts 284°
2026-05-03 20:34 -33.97220 18.90683 12319 ft 228 kts 284°
2026-05-03 20:34 -33.97020 18.88789 11988 ft 228 kts 281°
2026-05-03 20:35 -33.97052 18.86866 11709 ft 232 kts 271°
2026-05-03 20:35 -33.97378 18.84942 11418 ft 235 kts 265°
2026-05-03 20:35 -33.97803 18.83048 11129 ft 234 kts 264°
2026-05-03 20:35 -33.98235 18.81174 10836 ft 234 kts 263°
2026-05-03 20:36 -33.98670 18.79295 10559 ft 234 kts 261°
2026-05-03 20:36 -33.99473 18.77520 10225 ft 254 kts 235°
2026-05-03 20:36 -34.00986 18.76332 9904 ft 274 kts 204°
2026-05-03 20:36 -34.02931 18.76190 9564 ft 291 kts 173°
2026-05-03 20:37 -34.04916 18.76831 9222 ft 296 kts 167°
2026-05-03 20:37 -34.06886 18.77572 8840 ft 297 kts 167°
2026-05-03 20:37 -34.08866 18.78300 8472 ft 298 kts 168°
2026-05-03 20:37 -34.10857 18.78997 8122 ft 298 kts 169°
2026-05-03 20:38 -34.12855 18.79667 7765 ft 298 kts 172°
2026-05-03 20:38 -34.14879 18.79820 7297 ft 290 kts 197°
2026-05-03 20:38 -34.16782 18.79063 6813 ft 287 kts 211°
2026-05-03 20:38 -34.18558 18.78080 6612 ft 279 kts 212°
2026-05-03 20:39 -34.20271 18.77017 6414 ft 267 kts 223°
2026-05-03 20:39 -34.21450 18.75468 6189 ft 246 kts 246°
2026-05-03 20:39 -34.22210 18.73684 6004 ft 235 kts 252°
2026-05-03 20:39 -34.22743 18.71886 5801 ft 221 kts 270°
2026-05-03 20:40 -34.22531 18.70108 5364 ft 214 kts 300°
2026-05-03 20:40 -34.21568 18.68765 4971 ft 213 kts 323°
2026-05-03 20:40 -34.20284 18.67898 4629 ft 211 kts 335°
2026-05-03 20:40 -34.18899 18.67320 4249 ft 212 kts 340°
2026-05-03 20:41 -34.17481 18.66840 3908 ft 215 kts 341°
2026-05-03 20:41 -34.16046 18.66382 3632 ft 214 kts 342°
2026-05-03 20:41 -34.14615 18.65932 3335 ft 211 kts 341°
2026-05-03 20:41 -34.13209 18.65487 3082 ft 206 kts 341°
2026-05-03 20:42 -34.11859 18.65058 2791 ft 199 kts 341°
2026-05-03 20:42 -34.10555 18.64644 2547 ft 189 kts 341°
2026-05-03 20:42 -34.09308 18.64246 2397 ft 181 kts 341°
2026-05-03 20:42 -34.08121 18.63868 2155 ft 172 kts 342°
2026-05-03 20:43 -34.06993 18.63509 1898 ft 163 kts 341°
2026-05-03 20:43 -34.05931 18.63170 1665 ft 153 kts 342°
2026-05-03 20:43 -34.04925 18.62846 1402 ft 148 kts 345°
2026-05-03 20:43 -34.03930 18.62534 1216 ft 147 kts 341°
2026-05-03 20:44 -34.02941 18.62212 1041 ft 147 kts 345°
2026-05-03 20:44 -34.01954 18.61900 857 ft 146 kts 346°
2026-05-03 20:44 -34.00968 18.61587 653 ft 146 kts 347°
2026-05-03 20:44 -33.99989 18.61279 417 ft 145 kts 347°
2026-05-03 20:45 -33.99037 18.60975 219 ft 143 kts 346°
2026-05-03 20:45 -33.98147 18.60693 163 ft 115 kts 345°
2026-05-03 20:45 -33.97548 18.60501 160 ft 62 kts 345°
2026-05-03 20:45 -33.97354 18.60439 161 ft 21 kts 346°
2026-05-03 20:46 -33.97225 18.60399 162 ft 10 kts 344°
2026-05-03 20:46 -33.97167 18.60365 163 ft 10 kts 322°
2026-05-03 20:46 -33.97122 18.60291 163 ft 12 kts 292°
2026-05-03 20:46 -33.97097 18.60193 163 ft 10 kts 286°
2026-05-03 20:47 -33.97075 18.60103 163 ft 8 kts 286°
2026-05-03 20:47 -33.97070 18.60080 163 ft 1 kts 286°
2026-05-03 20:47 -33.97064 18.60057 163 ft 4 kts 285°
2026-05-03 20:47 -33.97053 18.60008 163 ft 8 kts 287°
2026-05-03 20:48 -33.97016 18.59946 163 ft 11 kts 327°
2026-05-03 20:48 -33.96937 18.59912 163 ft 7 kts 343°
2026-05-03 20:48 -33.96896 18.59896 163 ft 6 kts 328°
2026-05-03 20:48 -33.96890 18.59851 163 ft 7 kts 256°
2026-05-03 20:49 -33.96899 18.59811 163 ft 0 kts 255°